Year,Month,Day,Hour,Minute,Value (Times are PST for temperature in C)
2012,08,17,00,00,16.20
2012,08,17,00,01,16.20
2012,08,17,00,02,16.20
2012,08,17,00,03,16.10
2012,08,17,00,04,16.10
2012,08,17,00,05,16.00
2012,08,17,00,06,16.00
2012,08,17,00,07,16.00
2012,08,17,00,08,16.10
2012,08,17,00,09,16.10
2012,08,17,00,10,16.10
2012,08,17,00,11,16.00
2012,08,17,00,12,16.00
2012,08,17,00,13,15.90
2012,08,17,00,14,15.90
2012,08,17,00,15,15.90
2012,08,17,00,16,15.80
2012,08,17,00,17,15.80
2012,08,17,00,18,15.80
2012,08,17,00,19,15.80
2012,08,17,00,20,15.80
2012,08,17,00,21,15.70
2012,08,17,00,22,15.70
2012,08,17,00,23,15.70
2012,08,17,00,24,15.70
2012,08,17,00,25,15.70
2012,08,17,00,26,15.70
2012,08,17,00,27,15.70
2012,08,17,00,28,15.80
2012,08,17,00,29,15.80
2012,08,17,00,30,15.80
2012,08,17,00,31,15.80
2012,08,17,00,32,15.80
2012,08,17,00,33,15.80
2012,08,17,00,34,15.70
2012,08,17,00,35,15.70
2012,08,17,00,36,15.70
2012,08,17,00,37,15.70
2012,08,17,00,38,15.70
2012,08,17,00,39,15.70
2012,08,17,00,40,15.70
2012,08,17,00,41,15.70
2012,08,17,00,42,15.70
2012,08,17,00,43,15.70
2012,08,17,00,44,15.70
2012,08,17,00,45,15.70
2012,08,17,00,46,15.70
2012,08,17,00,47,15.70
2012,08,17,00,48,15.70
2012,08,17,00,49,15.70
2012,08,17,00,50,15.70
2012,08,17,00,51,15.70
2012,08,17,00,52,15.70
2012,08,17,00,53,15.70
2012,08,17,00,54,15.70
2012,08,17,00,55,15.70
2012,08,17,00,56,15.70
2012,08,17,00,57,15.70
2012,08,17,00,58,15.70
2012,08,17,00,59,15.70
2012,08,17,01,00,15.70
2012,08,17,01,01,15.70
2012,08,17,01,02,15.70
2012,08,17,01,03,15.60
2012,08,17,01,04,15.60
2012,08,17,01,05,15.60
2012,08,17,01,06,15.60
2012,08,17,01,07,15.60
2012,08,17,01,08,15.50
2012,08,17,01,09,15.50
2012,08,17,01,10,15.50
2012,08,17,01,11,15.40
2012,08,17,01,12,15.40
2012,08,17,01,13,15.40
2012,08,17,01,14,15.30
2012,08,17,01,15,15.30
2012,08,17,01,16,15.30
2012,08,17,01,17,15.30
2012,08,17,01,18,15.20
2012,08,17,01,19,15.20
2012,08,17,01,20,15.20
2012,08,17,01,21,15.20
2012,08,17,01,22,15.20
2012,08,17,01,23,15.10
2012,08,17,01,24,15.10
2012,08,17,01,25,15.10
2012,08,17,01,26,15.10
2012,08,17,01,27,15.10
2012,08,17,01,28,15.10
2012,08,17,01,29,15.10
2012,08,17,01,30,15.10
2012,08,17,01,31,15.10
2012,08,17,01,32,15.10
2012,08,17,01,33,15.10
2012,08,17,01,34,15.10
2012,08,17,01,35,15.10
2012,08,17,01,36,15.10
2012,08,17,01,37,15.10
2012,08,17,01,38,15.10
2012,08,17,01,39,15.10
2012,08,17,01,40,15.10
2012,08,17,01,41,15.00
2012,08,17,01,42,15.00
2012,08,17,01,43,15.00
2012,08,17,01,44,15.00
2012,08,17,01,45,15.00
2012,08,17,01,46,14.90
2012,08,17,01,47,14.90
2012,08,17,01,48,14.90
2012,08,17,01,49,14.90
2012,08,17,01,50,14.90
2012,08,17,01,51,14.90
2012,08,17,01,52,14.80
2012,08,17,01,53,14.80
2012,08,17,01,54,14.80
2012,08,17,01,55,14.80
2012,08,17,01,56,14.80
2012,08,17,01,57,14.80
2012,08,17,01,58,14.80
2012,08,17,01,59,14.80
2012,08,17,02,00,14.80
2012,08,17,02,01,14.80
2012,08,17,02,02,14.70
2012,08,17,02,03,14.70
2012,08,17,02,04,14.70
2012,08,17,02,05,14.70
2012,08,17,02,06,14.70
2012,08,17,02,07,14.70
2012,08,17,02,08,14.70
2012,08,17,02,09,14.70
2012,08,17,02,10,14.70
2012,08,17,02,11,14.70
2012,08,17,02,12,14.70
2012,08,17,02,13,14.70
2012,08,17,02,14,14.60
2012,08,17,02,15,14.60
2012,08,17,02,16,14.60
2012,08,17,02,17,14.60
2012,08,17,02,18,14.60
2012,08,17,02,19,14.60
2012,08,17,02,20,14.60
2012,08,17,02,21,14.60
2012,08,17,02,22,14.60
2012,08,17,02,23,14.60
2012,08,17,02,24,14.60
2012,08,17,02,25,14.60
2012,08,17,02,26,14.60
2012,08,17,02,27,14.50
2012,08,17,02,28,14.50
2012,08,17,02,29,14.50
2012,08,17,02,30,14.50
2012,08,17,02,31,14.50
2012,08,17,02,32,14.50
2012,08,17,02,33,14.50
2012,08,17,02,34,14.50
2012,08,17,02,35,14.50
2012,08,17,02,36,14.40
2012,08,17,02,37,14.40
2012,08,17,02,38,14.40
2012,08,17,02,39,14.40
2012,08,17,02,40,14.40
2012,08,17,02,41,14.40
2012,08,17,02,42,14.40
2012,08,17,02,43,14.30
2012,08,17,02,44,14.30
2012,08,17,02,45,14.30
2012,08,17,02,46,14.20
2012,08,17,02,47,14.20
2012,08,17,02,48,14.20
2012,08,17,02,49,14.20
2012,08,17,02,50,14.20
2012,08,17,02,51,14.20
2012,08,17,02,52,14.20
2012,08,17,02,53,14.20
2012,08,17,02,54,14.20
2012,08,17,02,55,14.10
2012,08,17,02,56,14.10
2012,08,17,02,57,14.10
2012,08,17,02,58,14.10
2012,08,17,02,59,14.10
2012,08,17,03,00,14.10
2012,08,17,03,01,14.10
2012,08,17,03,02,14.10
2012,08,17,03,03,14.10
2012,08,17,03,04,14.10
2012,08,17,03,05,14.10
2012,08,17,03,06,14.10
2012,08,17,03,07,14.10
2012,08,17,03,08,14.10
2012,08,17,03,09,14.10
2012,08,17,03,10,14.10
2012,08,17,03,11,14.10
2012,08,17,03,12,14.10
2012,08,17,03,13,14.10
2012,08,17,03,14,14.10
2012,08,17,03,15,14.10
2012,08,17,03,16,14.20
2012,08,17,03,17,14.20
2012,08,17,03,18,14.20
2012,08,17,03,19,14.20
2012,08,17,03,20,14.20
2012,08,17,03,21,14.20
2012,08,17,03,22,14.10
2012,08,17,03,23,14.10
2012,08,17,03,24,14.10
2012,08,17,03,25,14.10
2012,08,17,03,26,14.10
2012,08,17,03,27,14.00
2012,08,17,03,28,14.00
2012,08,17,03,29,14.00
2012,08,17,03,30,14.00
2012,08,17,03,31,13.90
2012,08,17,03,32,13.90
2012,08,17,03,33,13.90
2012,08,17,03,34,13.90
2012,08,17,03,35,13.90
2012,08,17,03,36,13.90
2012,08,17,03,37,13.90
2012,08,17,03,38,13.90
2012,08,17,03,39,13.80
2012,08,17,03,40,13.80
2012,08,17,03,41,13.80
2012,08,17,03,42,13.80
2012,08,17,03,43,13.70
2012,08,17,03,44,13.70
2012,08,17,03,45,13.70
2012,08,17,03,46,13.70
2012,08,17,03,47,13.70
2012,08,17,03,48,13.60
2012,08,17,03,49,13.60
2012,08,17,03,50,13.60
2012,08,17,03,51,13.60
2012,08,17,03,52,13.60
2012,08,17,03,53,13.60
2012,08,17,03,54,13.60
2012,08,17,03,55,13.60
2012,08,17,03,56,13.60
2012,08,17,03,57,13.60
2012,08,17,03,58,13.60
2012,08,17,03,59,13.50
2012,08,17,04,00,13.50
2012,08,17,04,01,13.50
2012,08,17,04,02,13.40
2012,08,17,04,03,13.40
2012,08,17,04,04,13.40
2012,08,17,04,05,13.40
2012,08,17,04,06,13.40
2012,08,17,04,07,13.40
2012,08,17,04,08,13.40
2012,08,17,04,09,13.40
2012,08,17,04,10,13.40
2012,08,17,04,11,13.40
2012,08,17,04,12,13.30
2012,08,17,04,13,13.30
2012,08,17,04,14,13.30
2012,08,17,04,15,13.30
2012,08,17,04,16,13.30
2012,08,17,04,17,13.30
2012,08,17,04,18,13.30
2012,08,17,04,19,13.30
2012,08,17,04,20,13.30
2012,08,17,04,21,13.30
2012,08,17,04,22,13.20
2012,08,17,04,23,13.20
2012,08,17,04,24,13.20
2012,08,17,04,25,13.20
2012,08,17,04,26,13.20
2012,08,17,04,27,13.20
2012,08,17,04,28,13.20
2012,08,17,04,29,13.20
2012,08,17,04,30,13.20
2012,08,17,04,31,13.10
2012,08,17,04,32,13.10
2012,08,17,04,33,13.10
2012,08,17,04,34,13.10
2012,08,17,04,35,13.10
2012,08,17,04,36,13.10
2012,08,17,04,37,13.10
2012,08,17,04,38,13.10
2012,08,17,04,39,13.10
2012,08,17,04,40,13.10
2012,08,17,04,41,13.10
2012,08,17,04,42,13.00
2012,08,17,04,43,13.00
2012,08,17,04,44,13.00
2012,08,17,04,45,13.00
2012,08,17,04,46,12.90
2012,08,17,04,47,12.90
2012,08,17,04,48,12.90
2012,08,17,04,49,12.90
2012,08,17,04,50,12.90
2012,08,17,04,51,12.90
2012,08,17,04,52,12.80
2012,08,17,04,53,12.80
2012,08,17,04,54,12.80
2012,08,17,04,55,12.80
2012,08,17,04,56,12.80
2012,08,17,04,57,12.80
2012,08,17,04,58,12.80
2012,08,17,04,59,12.80
2012,08,17,05,00,12.80
2012,08,17,05,01,12.80
2012,08,17,05,02,12.80
2012,08,17,05,03,12.80
2012,08,17,05,04,12.80
2012,08,17,05,05,12.80
2012,08,17,05,06,12.80
2012,08,17,05,07,12.70
2012,08,17,05,08,12.70
2012,08,17,05,09,12.70
2012,08,17,05,10,12.70
2012,08,17,05,11,12.70
2012,08,17,05,12,12.70
2012,08,17,05,13,12.70
2012,08,17,05,14,12.70
2012,08,17,05,15,12.70
2012,08,17,05,16,12.60
2012,08,17,05,17,12.60
2012,08,17,05,18,12.60
2012,08,17,05,19,12.60
2012,08,17,05,20,12.60
2012,08,17,05,21,12.60
2012,08,17,05,22,12.60
2012,08,17,05,23,12.60
2012,08,17,05,24,12.60
2012,08,17,05,25,12.60
2012,08,17,05,26,12.50
2012,08,17,05,27,12.50
2012,08,17,05,28,12.50
2012,08,17,05,29,12.50
2012,08,17,05,30,12.50
2012,08,17,05,31,12.50
2012,08,17,05,32,12.40
2012,08,17,05,33,12.40
2012,08,17,05,34,12.40
2012,08,17,05,35,12.40
2012,08,17,05,36,12.40
2012,08,17,05,37,12.40
2012,08,17,05,38,12.40
2012,08,17,05,39,12.40
2012,08,17,05,40,12.30
2012,08,17,05,41,12.30
2012,08,17,05,42,12.30
2012,08,17,05,43,12.30
2012,08,17,05,44,12.30
2012,08,17,05,45,12.30
2012,08,17,05,46,12.30
2012,08,17,05,47,12.30
2012,08,17,05,48,12.30
2012,08,17,05,49,12.30
2012,08,17,05,50,12.30
2012,08,17,05,51,12.20
2012,08,17,05,52,12.20
2012,08,17,05,53,12.20
2012,08,17,05,54,12.20
2012,08,17,05,55,12.20
2012,08,17,05,56,12.20
2012,08,17,05,57,12.20
2012,08,17,05,58,12.20
2012,08,17,05,59,12.20
2012,08,17,06,00,12.20
2012,08,17,06,01,12.20
2012,08,17,06,02,12.20
2012,08,17,06,03,12.20
2012,08,17,06,04,12.20
2012,08,17,06,05,12.10
2012,08,17,06,06,12.10
2012,08,17,06,07,12.10
2012,08,17,06,08,12.10
2012,08,17,06,09,12.10
2012,08,17,06,10,12.10
2012,08,17,06,11,12.10
2012,08,17,06,12,12.10
2012,08,17,06,13,12.00
2012,08,17,06,14,12.00
2012,08,17,06,15,12.10
2012,08,17,06,16,12.00
2012,08,17,06,17,12.00
2012,08,17,06,18,12.00
2012,08,17,06,19,12.00
2012,08,17,06,20,12.00
2012,08,17,06,21,12.00
2012,08,17,06,22,12.00
2012,08,17,06,23,12.00
2012,08,17,06,24,12.00
2012,08,17,06,25,12.00
2012,08,17,06,26,12.00
2012,08,17,06,27,12.00
2012,08,17,06,28,12.00
2012,08,17,06,29,12.00
2012,08,17,06,30,12.00
2012,08,17,06,31,12.00
2012,08,17,06,32,12.00
2012,08,17,06,33,12.00
2012,08,17,06,34,12.00
2012,08,17,06,35,12.00
2012,08,17,06,36,12.00
2012,08,17,06,37,12.00
2012,08,17,06,38,12.00
2012,08,17,06,39,12.00
2012,08,17,06,40,12.00
2012,08,17,06,41,12.00
2012,08,17,06,42,11.90
2012,08,17,06,43,11.90
2012,08,17,06,44,11.90
2012,08,17,06,45,11.90
2012,08,17,06,46,11.90
2012,08,17,06,47,11.90
2012,08,17,06,48,11.90
2012,08,17,06,49,11.90
2012,08,17,06,50,11.90
2012,08,17,06,51,11.90
2012,08,17,06,52,11.90
2012,08,17,06,53,11.90
2012,08,17,06,54,11.90
2012,08,17,06,55,11.80
2012,08,17,06,56,11.80
2012,08,17,06,57,11.80
2012,08,17,06,58,11.80
2012,08,17,06,59,11.80
2012,08,17,07,00,11.90
2012,08,17,07,01,11.90
2012,08,17,07,02,11.90
2012,08,17,07,03,11.90
2012,08,17,07,04,11.90
2012,08,17,07,05,11.90
2012,08,17,07,06,11.90
2012,08,17,07,07,11.90
2012,08,17,07,08,11.90
2012,08,17,07,09,11.90
2012,08,17,07,10,11.90
2012,08,17,07,11,11.90
2012,08,17,07,12,11.90
2012,08,17,07,13,11.90
2012,08,17,07,14,11.90
2012,08,17,07,15,11.90
2012,08,17,07,16,12.00
2012,08,17,07,17,12.00
2012,08,17,07,18,12.00
2012,08,17,07,19,12.00
2012,08,17,07,20,12.00
2012,08,17,07,21,12.00
2012,08,17,07,22,12.00
2012,08,17,07,23,12.00
2012,08,17,07,24,12.00
2012,08,17,07,25,12.00
2012,08,17,07,26,12.00
2012,08,17,07,27,12.10
2012,08,17,07,28,12.10
2012,08,17,07,29,12.10
2012,08,17,07,30,12.10
2012,08,17,07,31,12.10
2012,08,17,07,32,12.10
2012,08,17,07,33,12.20
2012,08,17,07,34,12.20
2012,08,17,07,35,12.20
2012,08,17,07,36,12.20
2012,08,17,07,37,12.20
2012,08,17,07,38,12.20
2012,08,17,07,39,12.20
2012,08,17,07,40,12.20
2012,08,17,07,41,12.20
2012,08,17,07,42,12.20
2012,08,17,07,43,12.20
2012,08,17,07,44,12.30
2012,08,17,07,45,12.30
2012,08,17,07,46,12.30
2012,08,17,07,47,12.30
2012,08,17,07,48,12.30
2012,08,17,07,49,12.30
2012,08,17,07,50,12.30
2012,08,17,07,51,12.30
2012,08,17,07,52,12.30
2012,08,17,07,53,12.40
2012,08,17,07,54,12.40
2012,08,17,07,55,12.40
2012,08,17,07,56,12.40
2012,08,17,07,57,12.40
2012,08,17,07,58,12.50
2012,08,17,07,59,12.50
2012,08,17,08,00,12.50
2012,08,17,08,01,12.50
2012,08,17,08,02,12.60
2012,08,17,08,03,12.60
2012,08,17,08,04,12.60
2012,08,17,08,05,12.60
2012,08,17,08,06,12.70
2012,08,17,08,07,12.70
2012,08,17,08,08,12.70
2012,08,17,08,09,12.80
2012,08,17,08,10,12.80
2012,08,17,08,11,12.80
2012,08,17,08,12,12.90
2012,08,17,08,13,12.90
2012,08,17,08,14,12.90
2012,08,17,08,15,13.00
2012,08,17,08,16,13.10
2012,08,17,08,17,13.10
2012,08,17,08,18,13.10
2012,08,17,08,19,13.20
2012,08,17,08,20,13.20
2012,08,17,08,21,13.30
2012,08,17,08,22,13.30
2012,08,17,08,23,13.30
2012,08,17,08,24,13.30
2012,08,17,08,25,13.30
2012,08,17,08,26,13.40
2012,08,17,08,27,13.40
2012,08,17,08,28,13.40
2012,08,17,08,29,13.40
2012,08,17,08,30,13.50
2012,08,17,08,31,13.50
2012,08,17,08,32,13.50
2012,08,17,08,33,13.60
2012,08,17,08,34,13.60
2012,08,17,08,35,13.60
2012,08,17,08,36,13.60
2012,08,17,08,37,13.60
2012,08,17,08,38,13.60
2012,08,17,08,39,13.60
2012,08,17,08,40,13.70
2012,08,17,08,41,13.70
2012,08,17,08,42,13.80
2012,08,17,08,43,13.80
2012,08,17,08,44,13.80
2012,08,17,08,45,13.80
2012,08,17,08,46,13.80
2012,08,17,08,47,13.80
2012,08,17,08,48,13.80
2012,08,17,08,49,13.80
2012,08,17,08,50,13.80
2012,08,17,08,51,13.90
2012,08,17,08,52,13.90
2012,08,17,08,53,13.80
2012,08,17,08,54,13.80
2012,08,17,08,55,13.70
2012,08,17,08,56,13.70
2012,08,17,08,57,13.70
2012,08,17,08,58,13.70
2012,08,17,08,59,13.80
2012,08,17,09,00,13.70
2012,08,17,09,01,13.70
2012,08,17,09,02,13.70
2012,08,17,09,03,13.60
2012,08,17,09,04,13.60
2012,08,17,09,05,13.60
2012,08,17,09,06,13.60
2012,08,17,09,07,13.60
2012,08,17,09,08,13.60
2012,08,17,09,09,13.60
2012,08,17,09,10,13.60
2012,08,17,09,11,13.70
2012,08,17,09,12,13.70
2012,08,17,09,13,13.70
2012,08,17,09,14,13.70
2012,08,17,09,15,13.70
2012,08,17,09,16,13.70
2012,08,17,09,17,13.60
2012,08,17,09,18,13.60
2012,08,17,09,19,13.60
2012,08,17,09,20,13.60
2012,08,17,09,21,13.60
2012,08,17,09,22,13.60
2012,08,17,09,23,13.60
2012,08,17,09,24,13.60
2012,08,17,09,25,13.60
2012,08,17,09,26,13.60
2012,08,17,09,27,13.60
2012,08,17,09,28,13.60
2012,08,17,09,29,13.60
2012,08,17,09,30,13.60
2012,08,17,09,31,13.60
2012,08,17,09,32,13.60
2012,08,17,09,33,13.60
2012,08,17,09,34,13.60
2012,08,17,09,35,13.70
2012,08,17,09,36,13.70
2012,08,17,09,37,13.70
2012,08,17,09,38,13.80
2012,08,17,09,39,13.80
2012,08,17,09,40,13.80
2012,08,17,09,41,13.80
2012,08,17,09,42,13.70
2012,08,17,09,43,13.70
2012,08,17,09,44,13.70
2012,08,17,09,45,13.70
2012,08,17,09,46,13.70
2012,08,17,09,47,13.70
2012,08,17,09,48,13.70
2012,08,17,09,49,13.70
2012,08,17,09,50,13.70
2012,08,17,09,51,13.70
2012,08,17,09,52,13.70
2012,08,17,09,53,13.70
2012,08,17,09,54,13.70
2012,08,17,09,55,13.80
2012,08,17,09,56,13.80
2012,08,17,09,57,13.80
2012,08,17,09,58,13.90
2012,08,17,09,59,13.90
2012,08,17,10,00,13.90
2012,08,17,10,01,13.90
2012,08,17,10,02,13.90
2012,08,17,10,03,13.90
2012,08,17,10,04,13.90
2012,08,17,10,05,13.90
2012,08,17,10,06,14.00
2012,08,17,10,07,14.10
2012,08,17,10,08,14.10
2012,08,17,10,09,14.00
2012,08,17,10,10,14.00
2012,08,17,10,11,13.90
2012,08,17,10,12,13.90
2012,08,17,10,13,14.00
2012,08,17,10,14,14.00
2012,08,17,10,15,14.00
2012,08,17,10,16,14.00
2012,08,17,10,17,14.10
2012,08,17,10,18,14.10
2012,08,17,10,19,14.10
2012,08,17,10,20,14.10
2012,08,17,10,21,14.10
2012,08,17,10,22,14.10
2012,08,17,10,23,14.10
2012,08,17,10,24,14.10
2012,08,17,10,25,14.20
2012,08,17,10,26,14.20
2012,08,17,10,27,14.20
2012,08,17,10,28,14.20
2012,08,17,10,29,14.20
2012,08,17,10,30,14.30
2012,08,17,10,31,14.30
2012,08,17,10,32,14.30
2012,08,17,10,33,14.30
2012,08,17,10,34,14.30
2012,08,17,10,35,14.30
2012,08,17,10,36,14.30
2012,08,17,10,37,14.30
2012,08,17,10,38,14.30
2012,08,17,10,39,14.30
2012,08,17,10,40,14.40
2012,08,17,10,41,14.40
2012,08,17,10,42,14.40
2012,08,17,10,43,14.40
2012,08,17,10,44,14.50
2012,08,17,10,45,14.50
2012,08,17,10,46,14.60
2012,08,17,10,47,14.70
2012,08,17,10,48,14.90
2012,08,17,10,49,14.90
2012,08,17,10,50,14.90
2012,08,17,10,51,15.00
2012,08,17,10,52,15.00
2012,08,17,10,53,14.90
2012,08,17,10,54,14.90
2012,08,17,10,55,14.80
2012,08,17,10,56,14.80
2012,08,17,10,57,14.80
2012,08,17,10,58,14.80
2012,08,17,10,59,14.80
2012,08,17,11,00,14.80
2012,08,17,11,01,14.90
2012,08,17,11,02,15.00
2012,08,17,11,03,15.10
2012,08,17,11,04,15.10
2012,08,17,11,05,15.10
2012,08,17,11,06,15.10
2012,08,17,11,07,15.10
2012,08,17,11,08,15.10
2012,08,17,11,09,15.10
2012,08,17,11,10,15.10
2012,08,17,11,11,15.10
2012,08,17,11,12,15.20
2012,08,17,11,13,15.20
2012,08,17,11,14,15.20
2012,08,17,11,15,15.30
2012,08,17,11,16,15.30
2012,08,17,11,17,15.40
2012,08,17,11,18,15.40
2012,08,17,11,19,15.40
2012,08,17,11,20,15.50
2012,08,17,11,21,15.50
2012,08,17,11,22,15.60
2012,08,17,11,23,15.60
2012,08,17,11,24,15.70
2012,08,17,11,25,15.70
2012,08,17,11,26,15.80
2012,08,17,11,27,15.80
2012,08,17,11,28,15.90
2012,08,17,11,29,16.00
2012,08,17,11,30,16.00
2012,08,17,11,31,16.10
2012,08,17,11,32,16.20
2012,08,17,11,33,16.30
2012,08,17,11,34,16.30
2012,08,17,11,35,16.40
2012,08,17,11,36,16.40
2012,08,17,11,37,16.30
2012,08,17,11,38,16.20
2012,08,17,11,39,16.30
2012,08,17,11,40,16.30
2012,08,17,11,41,16.40
2012,08,17,11,42,16.50
2012,08,17,11,43,16.60
2012,08,17,11,44,16.60
2012,08,17,11,45,16.70
2012,08,17,11,46,16.70
2012,08,17,11,47,16.60
2012,08,17,11,48,16.70
2012,08,17,11,49,16.60
2012,08,17,11,50,16.60
2012,08,17,11,51,16.50
2012,08,17,11,52,16.50
2012,08,17,11,53,16.40
2012,08,17,11,54,16.50
2012,08,17,11,55,16.60
2012,08,17,11,56,16.60
2012,08,17,11,57,16.60
2012,08,17,11,58,16.60
2012,08,17,11,59,16.50
2012,08,17,12,00,16.50
2012,08,17,12,01,16.50
2012,08,17,12,02,16.40
2012,08,17,12,03,16.30
2012,08,17,12,04,16.20
2012,08,17,12,05,16.20
2012,08,17,12,06,16.20
2012,08,17,12,07,16.20
2012,08,17,12,08,16.20
2012,08,17,12,09,16.30
2012,08,17,12,10,16.30
2012,08,17,12,11,16.30
2012,08,17,12,12,16.30
2012,08,17,12,13,16.40
2012,08,17,12,14,16.60
2012,08,17,12,15,16.70
2012,08,17,12,16,16.70
2012,08,17,12,17,16.80
2012,08,17,12,18,16.80
2012,08,17,12,19,16.90
2012,08,17,12,20,16.90
2012,08,17,12,21,17.00
2012,08,17,12,22,17.10
2012,08,17,12,23,17.20
2012,08,17,12,24,17.30
2012,08,17,12,25,17.40
2012,08,17,12,26,17.50
2012,08,17,12,27,17.50
2012,08,17,12,28,17.60
2012,08,17,12,29,17.60
2012,08,17,12,30,17.60
2012,08,17,12,31,17.60
2012,08,17,12,32,17.60
2012,08,17,12,33,17.60
2012,08,17,12,34,17.60
2012,08,17,12,35,17.60
2012,08,17,12,36,17.60
2012,08,17,12,37,17.60
2012,08,17,12,38,17.60
2012,08,17,12,39,17.60
2012,08,17,12,40,17.60
2012,08,17,12,41,17.60
2012,08,17,12,42,17.60
2012,08,17,12,43,17.70
2012,08,17,12,44,17.70
2012,08,17,12,45,17.80
2012,08,17,12,46,17.80
2012,08,17,12,47,17.80
2012,08,17,12,48,17.70
2012,08,17,12,49,17.70
2012,08,17,12,50,17.70
2012,08,17,12,51,17.60
2012,08,17,12,52,17.70
2012,08,17,12,53,17.70
2012,08,17,12,54,17.80
2012,08,17,12,55,17.80
2012,08,17,12,56,17.80
2012,08,17,12,57,17.70
2012,08,17,12,58,17.70
2012,08,17,12,59,17.70
2012,08,17,13,00,17.70
2012,08,17,13,01,17.80
2012,08,17,13,02,17.80
2012,08,17,13,03,17.90
2012,08,17,13,04,18.00
2012,08,17,13,05,18.10
2012,08,17,13,06,18.30
2012,08,17,13,07,18.40
2012,08,17,13,08,18.50
2012,08,17,13,09,18.50
2012,08,17,13,10,18.50
2012,08,17,13,11,18.50
2012,08,17,13,12,18.40
2012,08,17,13,13,18.40
2012,08,17,13,14,18.40
2012,08,17,13,15,18.50
2012,08,17,13,16,18.50
2012,08,17,13,17,18.60
2012,08,17,13,18,18.70
2012,08,17,13,19,18.70
2012,08,17,13,20,18.80
2012,08,17,13,21,18.80
2012,08,17,13,22,18.90
2012,08,17,13,23,18.90
2012,08,17,13,24,18.90
2012,08,17,13,25,19.00
2012,08,17,13,26,19.00
2012,08,17,13,27,19.10
2012,08,17,13,28,19.20
2012,08,17,13,29,19.20
2012,08,17,13,30,19.30
2012,08,17,13,31,19.30
2012,08,17,13,32,19.20
2012,08,17,13,33,19.20
2012,08,17,13,34,19.30
2012,08,17,13,35,19.40
2012,08,17,13,36,19.50
2012,08,17,13,37,19.60
2012,08,17,13,38,19.70
2012,08,17,13,39,19.80
2012,08,17,13,40,19.80
2012,08,17,13,41,19.80
2012,08,17,13,42,19.80
2012,08,17,13,43,19.80
2012,08,17,13,44,19.80
2012,08,17,13,45,19.90
2012,08,17,13,46,19.90
2012,08,17,13,47,19.90
2012,08,17,13,48,19.90
2012,08,17,13,49,20.00
2012,08,17,13,50,20.00
2012,08,17,13,51,20.10
2012,08,17,13,52,20.20
2012,08,17,13,53,20.20
2012,08,17,13,54,20.20
2012,08,17,13,55,20.20
2012,08,17,13,56,20.20
2012,08,17,13,57,20.20
2012,08,17,13,58,20.20
2012,08,17,13,59,20.10
2012,08,17,14,00,20.10
2012,08,17,14,01,20.00
2012,08,17,14,02,19.90
2012,08,17,14,03,19.80
2012,08,17,14,04,19.70
2012,08,17,14,05,19.70
2012,08,17,14,06,19.60
2012,08,17,14,07,19.60
2012,08,17,14,08,19.50
2012,08,17,14,09,19.40
2012,08,17,14,10,19.20
2012,08,17,14,11,19.00
2012,08,17,14,12,18.90
2012,08,17,14,13,18.70
2012,08,17,14,14,18.60
2012,08,17,14,15,18.50
2012,08,17,14,16,18.40
2012,08,17,14,17,18.20
2012,08,17,14,18,18.00
2012,08,17,14,19,17.90
2012,08,17,14,20,17.80
2012,08,17,14,21,17.70
2012,08,17,14,22,17.70
2012,08,17,14,23,17.60
2012,08,17,14,24,17.60
2012,08,17,14,25,17.50
2012,08,17,14,26,17.40
2012,08,17,14,27,17.30
2012,08,17,14,28,17.30
2012,08,17,14,29,17.30
2012,08,17,14,30,17.30
2012,08,17,14,31,17.30
2012,08,17,14,32,17.20
2012,08,17,14,33,17.20
2012,08,17,14,34,17.20
2012,08,17,14,35,17.20
2012,08,17,14,36,17.20
2012,08,17,14,37,17.20
2012,08,17,14,38,17.20
2012,08,17,14,39,17.20
2012,08,17,14,40,17.20
2012,08,17,14,41,17.20
2012,08,17,14,42,17.20
2012,08,17,14,43,17.20
2012,08,17,14,44,17.20
2012,08,17,14,45,17.30
2012,08,17,14,46,17.30
2012,08,17,14,47,17.30
2012,08,17,14,48,17.40
2012,08,17,14,49,17.40
2012,08,17,14,50,17.50
2012,08,17,14,51,17.50
2012,08,17,14,52,17.60
2012,08,17,14,53,17.60
2012,08,17,14,54,17.70
2012,08,17,14,55,17.70
2012,08,17,14,56,17.70
2012,08,17,14,57,17.70
2012,08,17,14,58,17.70
2012,08,17,14,59,17.70
2012,08,17,15,00,17.70
2012,08,17,15,01,17.60
2012,08,17,15,02,17.60
2012,08,17,15,03,17.50
2012,08,17,15,04,17.40
2012,08,17,15,05,17.40
2012,08,17,15,06,17.30
2012,08,17,15,07,17.30
2012,08,17,15,08,17.30
2012,08,17,15,09,17.20
2012,08,17,15,10,17.20
2012,08,17,15,11,17.20
2012,08,17,15,12,17.20
2012,08,17,15,13,17.20
2012,08,17,15,14,17.20
2012,08,17,15,15,17.30
2012,08,17,15,16,17.30
2012,08,17,15,17,17.40
2012,08,17,15,18,17.60
2012,08,17,15,19,17.80
2012,08,17,15,20,17.90
2012,08,17,15,21,18.00
2012,08,17,15,22,18.10
2012,08,17,15,23,18.10
2012,08,17,15,24,18.00
2012,08,17,15,25,17.80
2012,08,17,15,26,17.80
2012,08,17,15,27,17.60
2012,08,17,15,28,17.50
2012,08,17,15,29,17.50
2012,08,17,15,30,17.40
2012,08,17,15,31,17.30
2012,08,17,15,32,17.30
2012,08,17,15,33,17.30
2012,08,17,15,34,17.30
2012,08,17,15,35,17.30
2012,08,17,15,36,17.30
2012,08,17,15,37,17.30
2012,08,17,15,38,17.40
2012,08,17,15,39,17.40
2012,08,17,15,40,17.40
2012,08,17,15,41,17.40
2012,08,17,15,42,17.40
2012,08,17,15,43,17.50
2012,08,17,15,44,17.40
2012,08,17,15,45,17.30
2012,08,17,15,46,17.20
2012,08,17,15,47,17.10
2012,08,17,15,48,17.10
2012,08,17,15,49,17.00
2012,08,17,15,50,17.00
2012,08,17,15,51,16.90
2012,08,17,15,52,16.90
2012,08,17,15,53,16.80
2012,08,17,15,54,16.80
2012,08,17,15,55,16.80
2012,08,17,15,56,16.80
2012,08,17,15,57,16.80
2012,08,17,15,58,16.90
2012,08,17,15,59,17.00
2012,08,17,16,00,17.00
2012,08,17,16,01,16.90
2012,08,17,16,02,16.90
2012,08,17,16,03,16.90
2012,08,17,16,04,16.90
2012,08,17,16,05,16.80
2012,08,17,16,06,16.80
2012,08,17,16,07,16.80
2012,08,17,16,08,16.80
2012,08,17,16,09,16.80
2012,08,17,16,10,16.80
2012,08,17,16,11,16.80
2012,08,17,16,12,16.90
2012,08,17,16,13,16.90
2012,08,17,16,14,16.90
2012,08,17,16,15,16.80
2012,08,17,16,16,16.80
2012,08,17,16,17,16.80
2012,08,17,16,18,16.80
2012,08,17,16,19,16.80
2012,08,17,16,20,16.90
2012,08,17,16,21,16.90
2012,08,17,16,22,16.90
2012,08,17,16,23,17.00
2012,08,17,16,24,17.00
2012,08,17,16,25,17.10
2012,08,17,16,26,17.20
2012,08,17,16,27,17.20
2012,08,17,16,28,17.20
2012,08,17,16,29,17.30
2012,08,17,16,30,17.30
2012,08,17,16,31,17.40
2012,08,17,16,32,17.40
2012,08,17,16,33,17.50
2012,08,17,16,34,17.60
2012,08,17,16,35,17.70
2012,08,17,16,36,17.80
2012,08,17,16,37,17.90
2012,08,17,16,38,18.00
2012,08,17,16,39,18.00
2012,08,17,16,40,18.10
2012,08,17,16,41,18.10
2012,08,17,16,42,18.20
2012,08,17,16,43,18.20
2012,08,17,16,44,18.20
2012,08,17,16,45,18.10
2012,08,17,16,46,18.10
2012,08,17,16,47,18.10
2012,08,17,16,48,18.10
2012,08,17,16,49,18.10
2012,08,17,16,50,18.00
2012,08,17,16,51,18.00
2012,08,17,16,52,17.80
2012,08,17,16,53,17.70
2012,08,17,16,54,17.60
2012,08,17,16,55,17.40
2012,08,17,16,56,17.20
2012,08,17,16,57,17.10
2012,08,17,16,58,17.00
2012,08,17,16,59,16.90
2012,08,17,17,00,16.90
2012,08,17,17,01,16.90
2012,08,17,17,02,17.00
2012,08,17,17,03,17.00
2012,08,17,17,04,17.00
2012,08,17,17,05,17.00
2012,08,17,17,06,17.00
2012,08,17,17,07,16.90
2012,08,17,17,08,16.90
2012,08,17,17,09,16.90
2012,08,17,17,10,16.90
2012,08,17,17,11,16.90
2012,08,17,17,12,16.90
2012,08,17,17,13,17.00
2012,08,17,17,14,16.90
2012,08,17,17,15,16.90
2012,08,17,17,16,16.90
2012,08,17,17,17,16.80
2012,08,17,17,18,16.80
2012,08,17,17,19,16.70